Flag for Portugal Weather past 2 weeks in Beja, Portugal

Now
70 °F

Passing clouds.


Feels Like: 70 °F
Forecast: N/A
Wind: 7 mph from Southeast

Location: Beja Airport

Current Time: Mar 6, 2015 at 5:08:32 PM

Latest Report: Mar 6, 2015 at 4:00 PM


Visibility: N/A

Pressure: 30.30 "Hg

Humidity: 20%

Dew point: 27 °F

Location of BejaLocation

Historic Weather in Beja — Graph

°F

Beja temperature yesterday

Maximum temperature yesterday: 66 °F (at 3:00 PM)
Minimum temperature yesterday: 46 °F (at 6:00 AM)
Average temperature yesterday: 55 °F

Past Weeks' High & Low Weather Summary

 TemperatureHumidityPressure
High70 °F (Mar 4, 3:00 PM)100% (Feb 21, 2:00 AM)30.57 "Hg (Feb 21, 2:00 AM)
Low39 °F (Feb 24, 6:00 AM)17% (Mar 5, 4:00 PM)29.92 "Hg (Feb 21, 5:00 AM)
Average52 °F77%30.30 "Hg
* Reported Feb 19 4:00 PM — Mar 6 4:00 PM, Beja, Weather by CustomWeather, © 2015

Note: Actual official high and low records may vary slightly from our data, if they occured in-between our weather recording intervals... More about our weather records

Advertising

Beja weather history for previous 24 hours

 ConditionsComfort  
Time TempWeatherWind HumidityBarometerVisibility
4:00 PM
Fri, Mar 6
70 °FPassing clouds.7 mph20%30.30 "HgN/A
3:00 PM68 °FPassing clouds.8 mph23%30.30 "HgN/A
2:00 PM66 °FPassing clouds.9 mph26%30.30 "HgN/A
1:00 PM64 °FPassing clouds.10 mph28%30.33 "HgN/A
12:00 PM61 °FPassing clouds.12 mph27%30.33 "HgN/A
11:00 AM59 °FPassing clouds.13 mph31%30.36 "HgN/A
10:00 AM54 °FSunny.10 mph38%30.36 "Hg10 mi
9:00 AM48 °FSunny.12 mph54%30.36 "Hg10 mi
8:00 AM43 °FSunny.8 mph66%30.33 "Hg10 mi
7:00 AM41 °FSunny.8 mph70%30.33 "Hg10 mi
6:00 AM43 °FClear.8 mph66%30.30 "Hg10 mi
5:00 AM43 °FClear.5 mph71%30.30 "Hg10 mi
4:00 AM45 °FClear.7 mph66%30.30 "Hg10 mi
3:00 AM46 °FClear.6 mph57%30.30 "Hg10 mi
2:00 AM46 °FClear.5 mph57%30.33 "Hg10 mi
1:00 AM46 °FClear.8 mph53%30.33 "Hg10 mi
12:00 AM48 °FClear.6 mph54%30.33 "Hg10 mi
11:00 PM
Thu, Mar 5
50 °FClear.7 mph43%30.33 "Hg10 mi
10:00 PM52 °FClear.6 mph41%30.33 "Hg10 mi
9:00 PM50 °FClear.2 mph47%30.33 "Hg10 mi
8:00 PM54 °FClear.6 mph38%30.33 "Hg10 mi
7:00 PM59 °FClear.8 mph29%30.30 "Hg10 mi
6:00 PM63 °FSunny.8 mph24%30.30 "Hg10 mi
5:00 PM66 °FSunny.14 mph17%30.27 "Hg10 mi
Weather by CustomWeather, © 2015

See weather overviewHow to use our weather pages